Regional Weather Roundup
Issued by NWS Little Rock, AR

Home | Current Version | Previous Version | Text Only | Print | Product List | Glossary On
Versions: 1 2 3 4 5 6 7 8 9 10 11 12 13 14 15 16 17 18 19 20 21 22 23 24 25 26 27 28 29 30 31 32
000
ASUS44 KLZK 260705
RWRLZK

WEATHER ROUNDUP FOR ARKANSAS
NATIONAL WEATHER SERVICE LITTLE ROCK AR
100 AM CST SUN FEB 26 2017

NOTE: "FAIR" INDICATES FEW OR NO CLOUDS BELOW 12,000 FEET WITH NO
SIGNIFICANT WEATHER AND/OR OBSTRUCTIONS TO VISIBILITY.

ARZ001-003-010-029-260800-
NORTHWEST ARKANSAS

CITY           SKY/WX    TMP DP  RH WIND       PRES   REMARKS
FAYETTEVILLE   CLEAR     25  20  81 CALM      30.09S
FORT SMITH     PTCLDY    34  27  75 E6        30.10F WCI  29
HARRISON       CLEAR     32  17  54 SE3       30.09S
BENTONVILLE    CLEAR     32  18  55 S6        30.07F WCI  26
ROGERS         CLEAR     30  20  66 SE6       30.07F WCI  24
SILOAM SPGS    CLEAR     28  16  59 E5        30.07F WCI  23
HIGHFILL       CLEAR     29  17  61 CALM      30.07F
$$

ARZ004-005-016-260800-
NORTH CENTRAL ARKANSAS

CITY           SKY/WX    TMP DP  RH WIND       PRES   REMARKS
BATESVILLE     CLEAR     30  19  64 CALM      30.16R
FLIPPIN        CLEAR     28  19  69 CALM      30.10S
MTN HOME       CLEAR     32  16  51 S3        30.11R
$$

ARZ040-041-260800-
WEST CENTRAL ARKANSAS

CITY           SKY/WX    TMP DP  RH WIND       PRES   REMARKS
MENA           CLEAR     30  27  86 CALM      30.10F
MOUNT IDA      CLEAR     30  24  78 CALM      30.09F HAZE
$$

ARZ009-017-025-026-028-260800-
NORTHEAST ARKANSAS

CITY           SKY/WX    TMP DP  RH WIND       PRES   REMARKS
CORNING        CLOUDY    36  19  51 E5        30.17R
JONESBORO      CLEAR     29  24  82 CALM      30.16R
NEWPORT        CLEAR     36  27  69 MISG      30.16
WALNUT RIDGE   CLEAR     34  19  55 CALM      30.16R
BLYTHEVILLE    CLEAR     30  25  81 CALM      30.18R
$$

ARZ022-023-033-042-044-260800-
CENTRAL ARKANSAS

CITY           SKY/WX    TMP DP  RH WIND       PRES   REMARKS
LITTLE ROCK    CLEAR     34  29  82 CALM      30.16R
N LITTLE ROCK    N/A     38  27  64 CALM      30.17R
JACKSONVILLE   CLEAR     31  28  88 CALM      30.15R
SEARCY         CLEAR     29  28  96 CALM      30.18R
HOT SPRINGS    CLEAR     36  25  64 E7        30.13F
RUSSELLVILLE   PTCLDY    29  25  85 CALM      30.13S
CLINTON        CLOUDY    27  25  93 CALM      30.16R
$$

ARZ036-260800-
EAST ARKANSAS

CITY           SKY/WX    TMP DP  RH WIND       PRES   REMARKS
WEST MEMPHIS   CLEAR     34  30  85 S3        30.16R
$$

ARZ050-053-066-070-073-260800-
SOUTHWEST ARKANSAS

CITY           SKY/WX    TMP DP  RH WIND       PRES   REMARKS
ARKADELPHIA    FAIR      31  30  96 CALM      30.16S
CAMDEN         CLEAR     32  28  86 CALM      30.15F
TEXARKANA      CLEAR     38  28  67 E3        30.12S
EL DORADO      CLEAR     36  31  82 CALM      30.14F
DE QUEEN       CLEAR     31  31 100 CALM      30.10F
$$

ARZ056-057-069-260800-
SOUTHEAST ARKANSAS

CITY           SKY/WX    TMP DP  RH WIND       PRES   REMARKS
PINE BLUFF     CLEAR     36  33  89 CALM      30.16S
STUTTGART      CLEAR     39  23  52 SE5       30.17R
MONTICELLO     CLEAR     37  28  70 SE5       30.16S

$$






USA.gov is the U.S. government's official web portal to all federal, state and local government web resources and services.